• MPC Preparation (Info)

  • MPEC 2023-H37 : 2016 VV5

    The following Minor Planet Electronic Circular may be linked-to from your own Web pages, but must not otherwise be redistributed electronically.

    A form allowing access to any MPEC is at the bottom of this page.


    Read MPEC 2023-H36 Read MPEC 2023-H38


    M.P.E.C. 2023-H37                                Issued 2023 April 17, 14:09 UT
    
         The Minor Planet Electronic Circulars contain information on unusual
             minor planets, routine data on comets and natural satellites,
             and occasional editorial announcements.  They are published
        on behalf of Division F of the International Astronomical Union by the
              Minor Planet Center, Smithsonian Astrophysical Observatory,
                              Cambridge, MA 02138, U.S.A.
    			  
                 Prepared using the Tamkin Foundation Computer Network
    
                                  MPC@CFA.HARVARD.EDU
                URL https://www.minorplanetcenter.net/    ISSN 1523-6714
    
                                    2016 VV5                                 
    
    
                                Revision to MPEC 2016-W7                            
    
    Additional Observations:
         K16V05V  C2011 04 13.49859614 55 52.516-28 31 26.62         20.14GVEH037F51
         K16V05V  C2011 04 13.50905414 55 52.478-28 32 11.00         20.14GVEH037F51
         K16V05V  C2011 04 13.53228614 55 52.393-28 33 49.16         20.15GVEH037F51
         K16V05V  C2016 11 23.32085502 32 07.597+43 10 14.71         21.53GVEH037F51
         K16V05V  C2016 11 23.33236202 32 06.323+43 09 59.16         21.68GVEH037F51
         K16V05V  C2016 11 23.34387602 32 05.045+43 09 44.02         21.71GVEH037F51
         K16V05V  C2023 03 16.54455413 40 12.639-04 43 02.52         22.43GVEH037F52
         K16V05V  C2023 03 16.55618213 40 12.004-04 43 05.30         22.84GVEH037F52
         K16V05V  C2023 03 25.43245013 29 47.392-05 23 37.80         21.74GVEH037F52
         K16V05V  C2023 03 25.44322313 29 46.270-05 23 40.73         22.34GVEH037F52
         K16V05V  C2023 03 25.45400613 29 45.148-05 23 44.27         23.08GVEH037F52
         K16V05V  C2023 03 25.46479613 29 44.047-05 23 46.98         22.41GVEH037F52
         K16V05V  C2023 03 28.41194013 24 33.875-05 38 58.07         21.72GVEH037F51
         K16V05V  C2023 03 28.41514113 24 33.471-05 38 58.80         21.62GVEH037F51
         K16V05V  C2023 03 28.42359713 24 32.435-05 39 01.94         21.94GVEH037F51
         K16V05V  C2023 03 28.42683113 24 32.019-05 39 02.89         21.50GVEH037F51
         K16V05V  C2023 03 28.43532413 24 30.990-05 39 05.80         21.72GVEH037F51
         K16V05V  C2023 03 28.43856013 24 30.623-05 39 06.96         21.84GVEH037F51
         K16V05V  C2023 03 28.44702413 24 29.549-05 39 09.63         21.99GVEH037F51
         K16V05V  C2023 03 28.45025213 24 29.152-05 39 10.62         21.79GVEH037F51
         K16V05V  C2023 04 15.34324712 28 21.613-07 50 39.32         20.79wUEH037F52
         K16V05V  C2023 04 15.35475012 28 18.336-07 50 46.33         20.84wUEH037F52
         K16V05V  C2023 04 15.36630412 28 15.048-07 50 53.11         20.85wUEH037F52
         K16V05V  C2023 04 15.37778612 28 11.793-07 50 59.94         20.90wUEH037F52
         K16V05V  C2023 04 15.52380512 27 30.283-07 52 24.65         20.38GVEH037F52
         K16V05V  C2023 04 15.52443612 27 30.103-07 52 25.06         20.49GVEH037F52
    
    Observer details:
    F51 Pan-STARRS 1, Haleakala.  Observers J. Bulger, K. Chambers, T. Lowe, A.
        Schultz, I. Smith.  Measurers S. Chastel, J. Fairlamb, M. Huber, Y.
        Ramanjooloo, R. Wainscoat, R. Weryk.  1.8-m Ritchey-Chretien + CCD.
    F52 Pan-STARRS 2, Haleakala.  Observers J. Bulger, K. Chambers, T. Dukes, T.
        Lowe, A. Schultz, I. Smith.  Measurers S. Chastel, J. Fairlamb, M. Huber,
        Y. Ramanjooloo, R. Wainscoat, R. Weryk, K. Chambers, T. de Boer, H. Gao,
        C.-C. Lin, E. Magnier.  1.8-m Ritchey-Chretien + CCD.
    
    First and last observations above in comparison with prediction:
    Residuals in seconds of arc (or two decimals in degrees), reference and Delta-T
    110413 F51 6.88- 3.07-    230415 F52 4.28- 3.42-    MPO394732   +1.75 days
    
    Orbital elements:
    2016 VV5                                                 Earth MOID = 0.0340 AU
    Epoch 2023 Feb. 25.0 TT = JDT 2460000.5                 Veres                   
    M 282.51413              (2000.0)            P               Q                  
    n   0.57351298     Peri.  292.45304     +0.62186949     +0.78149606             
    a   1.4347422      Node    16.30898     -0.63617746     +0.54168079             
    e   0.4923614      Incl.   10.34355     -0.45667994     +0.30958978             
    P   1.72           H   22.30          G   0.15           U   1                  
    Residuals in seconds of arc
    110413 F51  0.0   0.0     161113 H01  0.1+  0.1+    230316 F52  0.0   0.2-
    110413 F51  0.0   0.1-    161113 H01  0.0   0.1+    230316 F52  0.1-  0.0
    110413 F51  0.0   0.0     161113 H01  0.0   0.1+    230325 F52  0.1+  0.3-
    161111 G96  0.9-  0.5+    161115 H01  0.0   0.1+    230325 F52  0.1-  0.0
    161111 G96  0.0   0.4+    161115 H01  0.1-  0.0     230325 F52  0.2-  0.3-
    161111 G96  0.6-  0.5+    161115 H01  0.1-  0.1-    230325 F52  0.0   0.3+
    161111 G96  0.6-  0.1-    161115 H01  0.2+  0.3-    230328 F51  0.0   0.1+
    161111 G96  0.5-  0.6+    161118 926  0.1-  0.1+    230328 F51  0.1-  0.4+
    161111 G96  0.7+  1.3-    161118 926  0.5-  0.3+    230328 F51  0.1-  0.0
    161111 G96  0.3-  0.7+    161118 926  0.0   0.2+    230328 F51  0.3-  0.1+
    161111 G96  0.1+  0.5-    161118 G96  0.8+  0.1-    230328 F51  0.1-  0.1-
    161111 695  0.2+  0.2+    161118 G96  0.3+  0.7-    230328 F51  0.4+  0.2-
    161111 695  0.0   0.1+    161120 I52  0.5-  0.1-    230328 F51  0.0   0.1-
    161112 H01  0.0   0.2+    161120 I52  0.5-  0.1-    230328 F51  0.0   0.0
    161112 H01  0.1-  0.0     161120 I52  0.3-  0.3-    230415 F52  0.1+  0.1+
    161112 H01  0.1+  0.0     161120 I52  0.2-  0.4+    230415 F52  0.1-  0.1-
    161112 H01  0.0   0.1-    161123 G96  0.3-  0.3+    230415 F52  0.1-  0.0
    161112 K51  0.7+  0.1+    161123 G96  0.1+  0.0     230415 F52  0.1+  0.0
    161112 K51  0.3+  0.1+    161123 F51  0.1-  0.0     230415 F52  0.1+  0.1+
    161112 K51  0.3-  0.0     161123 F51  0.0   0.4-    230415 F52  0.1+  0.0
    161113 H01  0.0   0.0     161123 F51  0.0   0.2-
    
    Ephemeris:
    2016 VV5                 a,e,i = 1.43, 0.49, 10                  q = 0.7283
    Date    TT    R. A. (2000) Decl.     Delta      r    Elong.  Phase     V
    2023 03 18    13 38 58.7 -04 49 13   0.5257  1.4791   151.7    18.6    22.7
    ...
    2023 04 02    13 14 29.8 -06 05 13   0.3758  1.3725   172.0     5.8    21.3
    ...
    2023 04 10    12 50 09.8 -07 02 22   0.3121  1.3125   174.5     4.2    20.7
    ...
    2023 04 16    12 25 20.5 -07 56 54   0.2726  1.2663   162.9    13.5    20.8
    2023 04 17    12 20 36.9 -08 07 03   0.2668  1.2585   160.8    15.2    20.8
    2023 04 18    12 15 43.1 -08 17 31   0.2611  1.2507   158.7    17.0    20.8
    ...
    2023 04 24    11 42 50.2 -09 26 23   0.2320  1.2033   145.2    28.5    20.8
    ...
    2023 05 02    10 50 43.7 -11 09 31   0.2051  1.1390   125.5    46.0    20.9
    ...
    2023 05 17    08 58 28.2 -13 50 56   0.1872  1.0175    86.6    82.8    21.6
    
    A. U. Tomatic                (C) Copyright 2023 MPC           M.P.E.C. 2023-H37
    


    Read MPEC 2023-H36 Read MPEC 2023-H38


    MPEC number:

    Enter an MPEC number in one of the following forms:

    • 1997-B01 (the full form)
    • J97B01 (the packed version of the full form)
    • B01 (the abbreviated form)